Regional Weather Roundup
Issued by NWS Memphis, TN

Home | Current Version | Previous Version | Text Only | Print | Product List | Glossary On
Versions: 1 2 3 4 5 6 7 8 9 10 11 12 13 14 15 16 17 18 19 20 21 22 23 24 25 26 27 28 29 30 31 32 33 34 35 36 37 38 39 40 41 42 43 44 45 46 47 48 49 50
000
ASUS44 KMEG 310700
RWRMEG
MEMPHIS CWA HOURLY WEATHER ROUNDUP
NATIONAL WEATHER SERVICE MEMPHIS TN
200 AM CDT SAT JUL 31 2021

...WEST TENNESSEE...

CITY           SKY/WX    TMP DP  RH WIND       PRES   REMARKS
MEMPHIS INTL   PTCLDY    83  76  79 CALM      30.00F HX  91
NWS MEMPHIS      N/A     79 N/A N/A MISG        N/A
JACKSON        MOCLDY    74  72  93 CALM      30.01F
COVINGTON      CLEAR     75  75 100 CALM      30.00S
LEXINGTON      PTCLDY    75  75 100 CALM      30.00S FOG
SELMER         CLEAR     73  72  94 CALM      30.00F
DYERSBURG      PTCLDY    77  77 100 NE5       30.02F
UNION CITY     CLEAR     75  75 100 N6        30.02R
PARIS          CLOUDY    73  72  94 NE6       30.02S


...EASTERN ARKANSAS...

CITY           SKY/WX    TMP DP  RH WIND       PRES   REMARKS
JONESBORO      CLEAR     77  73  87 NE3       30.02S
WEST MEMPHIS   CLEAR     80  77  90 CALM      29.98F
BATESVILLE     CLEAR     77  75  93 CALM      30.04S
NEWPORT        CLEAR     76  75  97 N6        30.03R
WALNUT RIDGE   CLEAR     75  75 100 N6        30.03R
BLYTHEVILLE    CLEAR     76  73  91 CALM      30.01S
SEARCY         CLEAR     78  77  96 VRB3      30.01S
STUTTGART      CLEAR     82  78  88 S3        30.01F HX  91
PINE BLUFF     CLEAR     80  76  87 CALM      30.01F
MONTICELLO     CLEAR     77  74  90 CALM      30.01F


...NORTH MISSISSIPPI...

CITY           SKY/WX    TMP DP  RH WIND       PRES   REMARKS
TUPELO         PTCLDY    81  78  91 CALM      29.99F
OXFORD         CLEAR     77  77 100 CALM      30.02S
OLIVE BRANCH     N/A     81  77  89 CALM      29.99F
TUNICA           N/A     75  73  94 CALM      30.00S
CLARKSDALE     CLEAR     79  79 100 CALM      30.00F
CORINTH        MOCLDY    75  73  94 CALM      29.99F
GREENWOOD      CLEAR     79  76  90 CALM      30.00F
COLUMBUS       MOCLDY    80  79  98 CALM      29.97F
STARKVILLE     MOCLDY    79  79 100 CALM      29.98F
GOLDEN TRIANGL MOCLDY    79  79 100 CALM      30.00F


...SOUTHEAST MISSOURI...

CITY           SKY/WX    TMP DP  RH WIND       PRES   REMARKS
KENNETT        PTCLDY    77  77 100 N6        30.02R
MALDEN         PTCLDY    77  73  88 NE6       30.05R
WEST PLAINS    CLEAR     75  73  93 NE3       30.10S
POPLAR BLUFF   PTCLDY    76  73  91 NE5       30.04S FOG
CAPE GIRARDEAU CLOUDY    76  69  79 E3        30.05S


...NORTHWEST ALABAMA...

CITY           SKY/WX    TMP DP  RH WIND       PRES   REMARKS


...MIDDLE TENNESSEE...

CITY           SKY/WX    TMP DP  RH WIND       PRES   REMARKS
NASHVILLE      MOCLDY    77  69  76 N5        30.02F
CLARKSVILLE    MOCLDY    71  68  90 N5        30.03S
DICKSON        CLOUDY    73  72  94 CALM      30.02S FOG
LAWRENCEBURG   CLOUDY    73  73 100 CALM      30.00F
LEWISBURG      CLEAR     75  73  94 CALM      30.00F


...WESTERN KENTUCKY...

CITY           SKY/WX    TMP DP  RH WIND       PRES   REMARKS
PADUCAH        MOCLDY    74  68  81 CALM      30.04S
FORT CAMPBELL  MOCLDY    70  70  99 N3        30.03R


...CENTRAL ARKANSAS...

CITY           SKY/WX    TMP DP  RH WIND       PRES   REMARKS
LITTLE ROCK      N/A    N/A N/A N/A MISG      30.01F


SKY/WX REPORTED AS FAIR MEANS FEW OR NO CLOUDS BELOW
12 THOUSAND FEET.




USA.gov is the U.S. government's official web portal to all federal, state and local government web resources and services.